Location: Hannover
(52.4091°N, 9.7504°E)
Time: 20:36:55
(UTC+01:00)

ISS - Visible Passes

Search period start: 09 November 2025 00:00
Search period end: 19 November 2025 00:00
Orbit: 415 x 421 km, 51.6° (Epoch: 08 November)

Date Brightness Start Highest point End Pass type
(mag) Time Alt. Az. Time Alt. Az. Time Alt. Az.
13 Nov -1.2 18:15:22 10° SSE 18:15:31 10° SSE 18:15:31 10° SSE visible
14 Nov -1.5 19:01:23 10° SSW 19:02:36 18° SSW 19:02:36 18° SSW visible
15 Nov -2.2 18:13:50 10° SSW 18:16:26 21° SSE 18:16:38 21° SE visible
15 Nov -0.4 19:49:29 10° WSW 19:49:34 10° WSW 19:49:34 10° WSW visible
16 Nov -1.6 17:26:33 10° S 17:28:33 15° SE 17:30:34 10° ESE visible
16 Nov -2.1 19:01:32 10° SW 19:03:30 30° SW 19:03:30 30° SW visible
17 Nov -3.0 18:13:38 10° SW 18:16:46 38° SSE 18:17:22 34° SE visible
17 Nov -0.4 19:50:00 10° W 19:50:18 12° W 19:50:18 12° W visible
18 Nov -2.4 17:25:51 10° SSW 17:28:46 28° SSE 17:31:11 13° E visible
18 Nov -2.4 19:01:54 10° WSW 19:04:06 37° WSW 19:04:06 37° WSW visible
